Location: Alt?nova Yenig�l
(36.9055°N, 30.7768°E)
Time: 19:28:55
(UTC+00:00)

Daily predictions for brighter satellites

Satellite Brightness Start Highest point End
(mag) Time Altitude Azimuth Time Altitude Azimuth Time Altitude Azimuth
Cosmos 1408 Rocket 4.0 15:06:05 10° NNW 15:10:26 66° W 15:14:44 10° S
Cosmos 1842 Rocket 4.2 15:06:58 10° SSW 15:11:14 60° W 15:15:31 10° N
Cosmos 2154 Rocket 4.1 15:09:40 10° N 15:15:54 58° E 15:22:07 10° SSE
Sich 1 4.1 15:12:22 10° NNE 15:15:54 23° ENE 15:19:24 10° SE
USA 281 4.3 15:13:39 10° E 15:18:27 22° NE 15:23:15 10° N
Cosmos 405 Rocket 2.7 15:18:14 10° N 15:22:08 66° E 15:26:04 10° SSE
YAOGAN 6 3.0 15:19:19 10° S 15:22:58 71° W 15:26:38 10° NNW
SL-16 R/B 3.3 15:18:32 10° SSE 15:23:02 25° ESE 15:27:33 10° NE
Cosmos 1805 Rocket 4.0 15:20:01 10° N 15:24:13 39° E 15:28:22 10° SSE
SMAP 3.0 15:20:02 10° SSE 15:24:40 76° ENE 15:29:19 10° N
Aureole 2 Rocket 2.9 15:22:11 10° NNW 15:24:53 50° WSW 15:27:42 10° S
Cosmos 1151 Rocket 4.3 15:26:27 10° SE 15:29:35 20° E 15:32:43 10° NE
NOSS 0 Rocket 4.3 15:25:11 10° SSW 15:31:23 70° WNW 15:37:37 10° NNE
Radarsat Rocket 4.3 15:26:02 10° S 15:31:52 74° WSW 15:38:10 10° NNW
Cosmos 2333 Rocket 4.3 15:32:26 10° WSW 15:36:55 23° WNW 15:41:24 10° N
ATLAS 5 CENTAUR R/B 3.8 15:31:23 10° NW 15:37:09 45° WSW 15:43:40 10° S
Cosmos 836 Rocket 4.5 15:32:00 10° S 15:37:15 75° ESE 15:42:32 10° NNE
CZ-2C R/B 4.2 15:33:35 10° ESE 15:37:19 20° ENE 15:40:55 10° NNE
CZ-3B R/B 2.8 15:35:46 10° SSW 15:40:04 24° SE 15:41:23 17° E
Cosmos 1606 2.7 15:37:56 10° S 15:41:47 65° E 15:45:39 10° NNE
Cosmos 1867 3.7 15:36:39 10° SSW 15:41:54 55° ESE 15:46:50 12° NE
Cosmos 389 Rocket 2.3 15:39:41 10° S 15:43:05 63° E 15:46:29 10° NNE
Cosmos 2181 Rocket 4.2 15:43:25 10° SSE 15:49:36 51° E 15:55:45 10° NNE
H-2A R/B 4.1 15:46:48 10° NNW 15:50:19 27° WNW 15:53:54 10° SW
SL-8 Rocket 4.3 15:45:27 10° N 15:51:21 43° ENE 15:57:14 10° SSE
SKYMED 2 3.6 15:47:11 10° NNE 15:51:29 60° E 15:55:45 10° S
USA 215 3.8 15:45:22 10° NE 15:51:40 53° NW 15:57:58 10° WSW
Cosmos 2298 Rocket 4.3 15:47:42 10° NNW 15:53:00 74° WSW 15:58:16 10° S
Cosmos 1818 3.5 15:48:32 10° NNW 15:53:58 62° ENE 15:59:20 10° SE
Cosmos 2150 Rocket 4.1 15:49:41 10° NNW 15:54:51 77° WSW 15:59:58 10° S
Cosmos 2278 Rocket 2.3 15:50:25 10° NNW 15:56:07 85° WSW 16:01:47 10° SSE
Lacrosse 5 rocket 1.8 15:53:12 10° SSW 15:56:35 34° SE 15:57:35 28° E
CZ-4 R/B 3.0 16:01:50 17° NNE 16:01:50 17° NNE 16:03:09 10° NNE
Cosmos 1633 Rocket 3.5 15:57:53 10° N 16:01:59 38° E 16:06:02 10° SSE
Meteor 1-25 Rocket 4.5 15:57:50 10° N 16:03:10 43° ENE 16:08:30 10° SSE
IRS-1C Rocket 4.0 16:02:36 10° SSE 16:07:48 64° ENE 16:13:02 10° N
CZ-2D R/B 3.3 16:04:25 10° SSE 16:08:06 51° ENE 16:11:48 10° N
Meteor 2-12 Rocket 4.4 16:03:11 10° N 16:09:21 89° W 16:15:28 10° S
SAR-Lupe-4 3.6 16:06:39 10° N 16:10:14 77° WNW 16:13:48 10° SSW
Cosmos 1125 Rocket 3.6 16:07:35 10° NNW 16:12:48 76° WSW 16:17:59 10° S
Cosmos 1939 Rocket 2.7 16:10:31 10° SSE 16:14:21 86° WSW 16:18:14 10° NNW
Cosmos 2237 Rocket 3.7 16:14:47 10° SW 16:19:52 34° WNW 16:24:59 10° N
Cosmos 1356 3.6 16:17:39 10° NNW 16:21:03 70° W 16:24:26 10° S
USA 267 3.5 16:18:27 29° E 16:21:28 48° NE 16:27:40 10° NW
ERS-2 4.0 16:18:22 10° N 16:21:35 29° WNW 16:24:47 10° SW
Abrixas rocket 3.2 16:19:00 10° NW 16:20:37 30° NNW 16:20:37 30° NNW
Cosmos 1689 Rocket 2.5 16:21:51 44° NNW 16:22:30 60° WNW 16:25:23 10° SSW
YAOGAN 1 3.7 16:26:41 28° NNE 16:26:41 28° NNE 16:28:56 10° N
SL-24 R/B - RUBIN 2 4.3 16:19:17 10° NNW 16:25:26 79° WSW 16:30:47 10° SSE
ISS -1.3 16:23:30 10° WNW 16:25:28 15° NNW 16:26:06 14° N
Meteor 1-4 Rocket 3.7 16:26:01 10° S 16:28:08 31° SSE 16:28:08 31° SSE
Okean-O 2.5 16:25:37 10° SSE 16:29:59 67° ENE 16:34:24 10° N
CZ-4B R/B 4.2 16:29:07 10° NNW 16:31:00 15° WNW 16:32:53 10° WSW
GENESIS II 4.1 16:29:00 10° NNW 16:32:56 87° WSW 16:33:25 68° SSE
Cosmos 2218 Rocket 3.8 16:28:47 10° N 16:34:57 82° E 16:41:06 10° S
Cosmos 2369 Rocket 4.3 16:34:19 10° N 16:34:50 12° NNE 16:34:50 12° NNE
USA 81 4.2 16:33:18 10° N 16:38:36 75° W 16:43:51 10° S
ATLAS 3B CENTAUR R/B 3.2 16:37:05 10° SSW 16:37:25 12° SSW 16:37:25 12° SSW
COSMO-SKYMED 1 4.0 16:35:27 10° N 16:39:26 36° WNW 16:43:24 10° SW
Cosmos 1515 Rocket 4.0 16:35:26 10° S 16:38:36 46° SSE 16:38:36 46° SSE
H-2A R/B 2.5 16:42:58 46° NNE 16:42:58 46° NNE 16:46:57 10° N
Cosmos 2366 rocket 3.9 16:41:19 10° N 16:47:31 83° W 16:53:39 10° S
Cosmos 773 Rocket 4.2 16:49:30 10° SSW 16:54:42 68° WNW 16:56:30 41° N
Meteor 1-14 Rocket 4.3 16:50:00 10° N 17:02:40 - SSE 16:55:21 64° NE
Cosmos 2297 3.5 16:56:22 10° NNW 17:02:05 88° ENE 17:02:18 83° SE
USA 281 3.4 16:55:49 10° SSE 17:02:19 69° WSW 17:08:53 10° NNW
Helios 1A Rocket 4.0 16:58:56 10° S 17:03:21 43° WNW 17:06:41 10° NNW
SL-16 R/B 3.3 17:01:34 10° SW 17:06:51 40° WNW 17:09:55 23° N
Cosmos 489 Rocket 4.4 17:02:02 10° SSW 17:08:13 78° WNW 17:09:42 54° N
Cosmos 1943 Rocket 3.7 17:05:52 10° NNW 17:07:55 23° N 17:07:55 23° N
CZ-2C R/B 4.1 17:11:52 10° S 17:16:53 43° W 17:21:41 10° NNW
Cosmos 2285 Rocket 4.4 17:18:55 10° NNW 17:25:12 61° WSW 17:28:18 30° S
Nadezhda 3 Rocket 4.3 17:22:15 10° S 17:27:22 59° SSW 17:27:22 59° SSW
Lacrosse 5 rocket 4.3 17:32:55 10° W 17:33:15 12° W 17:33:15 12° W
ATLAS CENTAUR R/B 3.8 17:31:53 10° NW 17:47:59 85° WNW 17:47:59 85° WNW
USA 267 4.3 18:05:50 41° W 18:05:50 41° W 18:10:40 10° NW
